Tracking 19717 objects as of 24-Jun-2019
HD Live streaming from Space Station
objects crossing your sky now

IRIDIUM 171

Track IRIDIUM 171 now!
10-day predictions
IRIDIUM 171 is classified as:


NORAD ID: 43929
Int'l Code: 2019-002H
Perigee: 783.3 km
Apogee: 786.4 km
Inclination: 86.4 °
Period: 100.4 minutes
Semi major axis: 7155 km
RCS: Unknown
Launch date: January 11, 2019
Source: United States (US)
Launch site: AIR FORCE WESTERN TEST RANGE (AFWTR)
aabbcc
Your satellite tracking list
Your tracking list is empty




NASA's NSSDC Master Catalog

Two Line Element Set (TLE):
1 43929U 19002H   19175.54057831  .00000074  00000-0  19368-4 0  9997
2 43929  86.3972 339.0802 0002153 100.3954 259.7484 14.34216308 23514
Source of the keplerian elements: AFSPC